Weather History for KTWM - April, 2013

Change the Weather History Date:

Friday, April 26, 2013

  Actual Average Record
Temperature  
Mean Temperature 44 °F -  
Max Temperature 57 °F 52 °F 74 °F (1949)
Min Temperature 30 °F 32 °F 11 °F (1975)
Degree Days  
Heating Degree Days 22    
Moisture  
Dew Point 31 °F    
Average Humidity 65    
Maximum Humidity 87    
Minimum Humidity 44    
Precipitation  
Precipitation 0.01 in - - ()
Sea Level Pressure  
Sea Level Pressure 30.03 in    
Wind  
Wind Speed 2 mph (South)    
Max Wind Speed 10 mph    
Max Gust Speed 17 mph    
Visibility 10 miles    
Events Rain    
Averages and records for this station are not official NWS values.
T = Trace of Precipitation, MM = Missing Value Source: NWS Daily Summary

Daily Weather History Graph

Daily Weather History Graph

Search for Another Location

Airport or City:

Trip Planner

Search our weather history database for the weather conditions in past years. The results will help you decide how hot, cold, wet, or windy it might be!

Date:

Astronomy

Apr. 26, 2013 Rise Set
Actual Time 5:59 AM CDT 8:11 PM CDT
Civil Twilight 5:25 AM CDT 8:44 PM CDT
Nautical Twilight 4:44 AM CDT 9:26 PM CDT
Astronomical Twilight 3:58 AM CDT 10:12 PM CDT
Moon 9:39 PM CDT (4/26) 6:23 AM CDT (4/26)
Length of Visible Light 15h 18m
Length of Day
14h 12m
Full, 99% of the Moon is Illuminated
Apr 26
Full
May 2
Last Quarter
May 9
New
May 17
First Quarter
May 24
Full

Hourly Weather History & Observations

Time (CDT) Temp. Windchill Dew Point Humidity Pressure Visibility Wind Dir Wind Speed Gust Speed Precip Events Conditions
12:11 AM 30.2 °F - 21.2 °F 69% 30.07 in 10.0 mi Calm Calm - N/A   Clear
12:32 AM 30.2 °F - 23.0 °F 75% 30.07 in 10.0 mi Calm Calm - N/A   Mostly Cloudy
12:51 AM 30.2 °F - 23.0 °F 75% 30.07 in 10.0 mi Calm Calm - N/A   Overcast
1:11 AM 30.2 °F - 23.0 °F 75% 30.08 in 10.0 mi Calm Calm - N/A   Mostly Cloudy
1:31 AM 30.2 °F - 23.0 °F 75% 30.07 in 10.0 mi Calm Calm - N/A   Mostly Cloudy
1:51 AM 30.2 °F - 24.8 °F 80% 30.07 in 10.0 mi Calm Calm - N/A   Scattered Clouds
2:12 AM 30.2 °F - 24.8 °F 80% 30.06 in 10.0 mi Calm Calm - N/A   Mostly Cloudy
2:31 AM 30.2 °F - 24.8 °F 80% 30.06 in 10.0 mi Calm Calm - N/A   Overcast
2:51 AM 33.8 °F - 24.8 °F 70% 30.06 in 10.0 mi Calm Calm - N/A Rain Light Rain
3:12 AM 32.0 °F - 26.6 °F 80% 30.05 in 7.0 mi Calm Calm - 0.01 in Rain Light Rain
3:31 AM 32.0 °F - 26.6 °F 80% 30.03 in 10.0 mi Calm Calm - 0.01 in   Overcast
3:51 AM 32.0 °F - 28.4 °F 87% 30.03 in 10.0 mi Calm Calm - 0.01 in   Overcast
4:12 AM 32.0 °F 27.5 °F 28.4 °F 87% 30.02 in 10.0 mi North 4.6 mph - N/A   Light Drizzle
4:31 AM 33.8 °F - 28.4 °F 81% 30.03 in 10.0 mi Calm Calm - N/A   Light Drizzle
4:51 AM 33.8 °F - 28.4 °F 81% 30.02 in 10.0 mi Calm Calm - N/A Rain Light Rain
5:12 AM 33.8 °F 29.6 °F 28.4 °F 81% 30.01 in 10.0 mi NNE 4.6 mph - N/A   Overcast
5:31 AM 33.8 °F 29.6 °F 28.4 °F 81% 30.00 in 10.0 mi North 4.6 mph - N/A   Overcast
5:51 AM 33.8 °F 29.6 °F 28.4 °F 81% 30.00 in 10.0 mi NE 4.6 mph - N/A   Mostly Cloudy
6:12 AM 33.8 °F 29.6 °F 28.4 °F 81% 29.99 in 10.0 mi NE 4.6 mph - N/A   Scattered Clouds
6:51 AM 35.6 °F 32.8 °F 28.4 °F 75% 29.99 in 10.0 mi ENE 3.5 mph - N/A   Clear
7:11 AM 35.6 °F 31.7 °F 28.4 °F 75% 30.00 in 10.0 mi NNE 4.6 mph - N/A   Clear
7:31 AM 37.4 °F 33.8 °F 28.4 °F 70% 29.99 in 10.0 mi NNE 4.6 mph - N/A   Clear
7:52 AM 37.4 °F 33.8 °F 30.2 °F 75% 30.00 in 10.0 mi NE 4.6 mph - N/A   Clear
8:11 AM 39.2 °F 35.0 °F 30.2 °F 70% 30.00 in 10.0 mi ENE 5.8 mph - N/A   Clear
8:31 AM 39.2 °F 37.0 °F 30.2 °F 70% 30.00 in 10.0 mi ENE 3.5 mph - N/A   Clear
8:52 AM 41.0 °F 38.0 °F 32.0 °F 70% 30.00 in 10.0 mi ENE 4.6 mph - N/A   Clear
9:11 AM 42.8 °F - 32.0 °F 66% 30.00 in 10.0 mi Calm Calm - N/A   Clear
9:31 AM 42.8 °F 41.1 °F 30.2 °F 61% 30.00 in 10.0 mi SSE 3.5 mph - N/A   Clear
9:52 AM 42.8 °F - 30.2 °F 61% 29.99 in 10.0 mi Calm Calm - N/A   Clear
10:11 AM 44.6 °F - 30.2 °F 57% 29.99 in 10.0 mi Calm Calm - N/A   Unknown
10:31 AM 44.6 °F 43.1 °F 32.0 °F 61% 29.99 in 10.0 mi SSE 3.5 mph - N/A   Unknown
10:51 AM 44.6 °F - 32.0 °F 61% 30.00 in 10.0 mi Calm Calm - N/A   Clear
11:11 AM 46.4 °F - 32.0 °F 57% 30.00 in 10.0 mi Calm Calm - N/A   Clear
11:31 AM 46.4 °F 45.2 °F 32.0 °F 57% 30.00 in 10.0 mi South 3.5 mph - N/A   Clear
11:51 AM 46.4 °F 43.5 °F 32.0 °F 57% 30.00 in 10.0 mi SSE 5.8 mph - N/A   Clear
12:11 PM 46.4 °F 42.4 °F 32.0 °F 57% 29.99 in 10.0 mi SSE 8.1 mph - N/A   Clear
12:31 PM 46.4 °F 42.9 °F 32.0 °F 57% 30.00 in 10.0 mi South 6.9 mph - N/A   Clear
12:51 PM 48.2 °F - 33.8 °F 58% 30.00 in 10.0 mi SSE 4.6 mph - N/A   Clear
1:11 PM 48.2 °F - 33.8 °F 58% 30.00 in 10.0 mi SW 5.8 mph - N/A   Clear
1:31 PM 48.2 °F - 33.8 °F 58% 30.00 in 10.0 mi SSW 5.8 mph - N/A   Clear
1:51 PM 50.0 °F - 33.8 °F 54% 30.00 in 10.0 mi SSW 9.2 mph - N/A   Clear
2:11 PM 50.0 °F - 33.8 °F 54% 30.01 in 10.0 mi SSW 10.4 mph - N/A   Clear
2:32 PM 51.8 °F - 33.8 °F 50% 30.01 in 10.0 mi SSW 10.4 mph - N/A   Clear
2:51 PM 51.8 °F - 33.8 °F 50% 30.01 in 10.0 mi South 9.2 mph - N/A   Clear
3:11 PM 53.6 °F - 33.8 °F 47% 30.01 in 10.0 mi SSW 9.2 mph 17.3 mph N/A   Clear
3:32 PM 53.6 °F - 35.6 °F 51% 30.01 in 10.0 mi SSW 9.2 mph - N/A   Clear
3:51 PM 55.4 °F - 35.6 °F 47% 30.01 in 10.0 mi South 9.2 mph - N/A   Clear
4:11 PM 55.4 °F - 35.6 °F 47% 30.01 in 10.0 mi South 8.1 mph - N/A   Clear
4:32 PM 55.4 °F - 35.6 °F 47% 30.01 in 10.0 mi South 5.8 mph - N/A   Clear
4:51 PM 57.2 °F - 35.6 °F 44% 30.02 in 10.0 mi SSW 6.9 mph - N/A   Clear
5:11 PM 57.2 °F - 35.6 °F 44% 30.01 in 10.0 mi South 9.2 mph - N/A   Clear
5:32 PM 57.2 °F - 35.6 °F 44% 30.02 in 10.0 mi South 9.2 mph - N/A   Clear
5:51 PM 55.4 °F - 35.6 °F 47% 30.02 in 10.0 mi South 8.1 mph - N/A   Clear
6:11 PM 55.4 °F - 35.6 °F 47% 30.03 in 10.0 mi South 6.9 mph - N/A   Clear
6:32 PM 53.6 °F - 35.6 °F 51% 30.03 in 10.0 mi SSW 5.8 mph - N/A   Clear
6:51 PM 53.6 °F - 35.6 °F 51% 30.04 in 10.0 mi SSW 6.9 mph - N/A   Clear
7:12 PM 53.6 °F - 35.6 °F 51% 30.04 in 10.0 mi SW 3.5 mph - N/A   Clear
7:31 PM 51.8 °F - 35.6 °F 54% 30.05 in 10.0 mi South 3.5 mph - N/A   Clear
7:51 PM 50.0 °F - 35.6 °F 58% 30.05 in 10.0 mi Calm Calm - N/A   Clear
8:12 PM 48.2 °F - 33.8 °F 58% 30.06 in 10.0 mi Calm Calm - N/A   Clear
8:31 PM 48.2 °F - 33.8 °F 58% 30.07 in 10.0 mi Calm Calm - N/A   Clear
8:51 PM 42.8 °F - 32.0 °F 66% 30.08 in 10.0 mi Calm Calm - N/A   Clear
9:12 PM 41.0 °F - 30.2 °F 65% 30.08 in 10.0 mi Calm Calm - N/A   Clear
9:31 PM 42.8 °F 40.1 °F 32.0 °F 66% 30.08 in 10.0 mi NW 4.6 mph - N/A   Clear
9:51 PM 37.4 °F 34.9 °F 30.2 °F 75% 30.09 in 10.0 mi West 3.5 mph - N/A   Clear
10:12 PM 39.2 °F - 30.2 °F 70% 30.09 in 10.0 mi Calm Calm - N/A   Clear
10:31 PM 35.6 °F - 28.4 °F 75% 30.10 in 10.0 mi Calm Calm - N/A   Clear
10:51 PM 35.6 °F - 28.4 °F 75% 30.10 in 10.0 mi Calm Calm - N/A   Clear
11:12 PM 37.4 °F - 28.4 °F 70% 30.10 in 10.0 mi Calm Calm - N/A   Clear
11:31 PM 33.8 °F - 26.6 °F 75% 30.10 in 10.0 mi Calm Calm - N/A   Clear
11:51 PM 32.0 °F - 26.6 °F 80% 30.10 in 10.0 mi Calm Calm - N/A   Clear